Regional Weather Roundup
Issued by NWS Charleston, WV

Home | Current Version | Previous Version | Graphics & Text | Print | Product List | Glossary On
Versions: 1 2 3 4 5 6 7 8 9 10 11 12 13 14 15 16 17 18 19 20 21 22 23 24 25 26 27 28 29 30 31 32 33 34 35 36 37 38 39 40 41 42 43 44 45 46 47 48 49 50
984
ASUS41 KRLX 140210
RWRRLX
West Virginia Regional Weather Roundup
National Weather Service Charleston WV
900 PM EST WED DEC 13 2017

Note: "fair" indicates few or no clouds below 12,000 feet with no
significant weather and/or obstructions to visibility.

WVZ003-140300-
Northern Panhandle of West Virginia

CITY           SKY/WX    TMP DP  RH WIND       PRES   REMARKS
WHEELING       CLOUDY    22  19  89 SE8       29.46F
$$

WVZ009-140300-
Northwest West Virginia

CITY           SKY/WX    TMP DP  RH WIND       PRES   REMARKS
PARKERSBURG    CLOUDY    31  12  45 S12       29.50F
$$

WVZ006-140300-
Western West Virginia

CITY           SKY/WX    TMP DP  RH WIND       PRES   REMARKS
HUNTINGTON     CLOUDY    43  11  27 SW15G23   29.52F
$$

WVZ015-140300-
West Central West Virginia

CITY           SKY/WX    TMP DP  RH WIND       PRES   REMARKS
CHARLESTON     CLOUDY    42  11  28 SW17G26   29.53S
$$

WVZ022-031-140300-
North Central West Virginia

CITY           SKY/WX    TMP DP  RH WIND       PRES   REMARKS
CLARKSBURG     CLOUDY    31  13  47 CALM      29.50F
MORGANTOWN     CLOUDY    28  20  71 CALM      29.50F
$$

WVZ025-035-042-045-140300-
Southern West Virginia

CITY           SKY/WX    TMP DP  RH WIND       PRES   REMARKS
BECKLEY        CLOUDY    36  10  34 SW15G24   29.55R
LOGAN          CLOUDY    41  14  33 SW9G23    29.57R
BLUEFIELD      MOCLDY    35   8  32 W21G40    29.59R
LEWISBURG      MOCLDY    29  16  59 CALM      29.57F
$$

WVZ047-140300-
Northern Mountains of West Virginia

CITY           SKY/WX    TMP DP  RH WIND       PRES   REMARKS
ELKINS         CLOUDY    38  15  39 S13G23    29.50S
$$

WVZ052-140300-
Eastern Panhandle of West Virginia

CITY           SKY/WX    TMP DP  RH WIND       PRES   REMARKS
MARTINSBURG    CLOUDY    27  22  81 NW3       29.60F
PETERSBURG     CLOUDY    35  16  47 S12G17    29.55S
$$




USA.gov is the U.S. government's official web portal to all federal, state and local government web resources and services.